Kezdőlap
METAR-TAF:

METAR-TAF

Repülőterek :

Ermelo, Dél-afrikai Köztársaság

földrajzi szélesség: 26-29-44S, földrajzi hosszúság: 29-58-47E, magasság: 1737 m

Jelenlegi meteorológiai megfigyelések

A jelentés 17 órával és 18 perccel ezelõtt készült, 08:49 UTC
Délkeleti szél 7 kt
Hőmérséklet 15°C
Páratartalom 36%
Légköri nyomás 1034 hPa

METAR: FAEO 220849Z AUTO 13007KT //// // ////// 15/M00 Q1034

Idő: 04:07 (02:07 UTC)


TAF: hiányzik

Meteorológiai megfigyelések és előrejelzések több, mint 4000 repülőtéren (METAR és TAF jelentéseket).

A térképen piros és sárga pontok jelzik az elérhető meteorológiai állomásokat.

Mozgassa az egeret a pont fölött, hogy megjelenjen az állomás neve.

Azután kattintson az időjárási megfigyelések és előrejelzések megtekintéséhez.

A térkép megváltoztatása: kattintson a fekete keresztel jelölt zöld gombra ráközelítéshez, a vonallal jelölt zöld gombra távolításhoz, vagy a zöld nyilakra a szomszédos térképek eléréséhez.


METAR-TAF: